Glencoe, MN

6:49 PM CDT on August 22, 2017 (GMT -0500)
Glencoe Municipal

Weather History for KGYL - April, 2014

Change the Weather History Date:

Wednesday, April 16, 2014

  Actual Average (KHCD) Record (KHCD)
Temperature  
Mean Temperature 34 °F -  
Max Temperature 38 °F 59 °F 84 °F (1958)
Min Temperature 30 °F 36 °F 18 °F (1961)
Degree Days  
Heating Degree Days 31    
Moisture  
Dew Point 24 °F    
Average Humidity 70    
Maximum Humidity 90    
Minimum Humidity 44    
Precipitation  
Precipitation 0.16 in - - ()
Sea Level Pressure  
Sea Level Pressure 29.90 in    
Wind  
Wind Speed 14 mph (NE)    
Max Wind Speed 20 mph    
Max Gust Speed 28 mph    
Visibility 7 miles    
Events Rain , Snow    
Averages and records for this station are not official NWS values.
T = Trace of Precipitation, MM = Missing Value Source: NWS Daily Summary

Daily Weather History Graph

Daily Weather History Graph

Search for Another Location

Airport or City:

Trip Planner

Search our weather history database for the weather conditions in past years. The results will help you decide how hot, cold, wet, or windy it might be!

Date:

Astronomy

Apr. 16, 2014 Rise Set
Actual Time 6:30 AM CDT 8:02 PM CDT
Civil Twilight 5:59 AM CDT 8:33 PM CDT
Nautical Twilight 5:22 AM CDT 9:10 PM CDT
Astronomical Twilight 4:42 AM CDT 9:50 PM CDT
Moon 9:51 PM CDT (4/16) 7:15 AM CDT (4/16)
Length of Visible Light 14h 33m
Length of Day
13h 32m
Full, 98% of the Moon is Illuminated
Apr 16
Full
Apr 22
Last Quarter
Apr 29
New
May 6
First Quarter
May 14
Full

Hourly Weather History & Observations

Time (CDT) Temp. Windchill Dew Point Humidity Pressure Visibility Wind Dir Wind Speed Gust Speed Precip Events Conditions
12:14 AM 34.7 °F 25.5 °F 14.7 °F 44% 30.00 in 10.0 mi East 13.8 mph - N/A   Overcast
12:34 AM 34.7 °F 26.4 °F 14.5 °F 44% 30.00 in 10.0 mi East 11.5 mph - N/A   Overcast
12:53 AM 34.5 °F 26.2 °F 15.1 °F 45% 30.00 in 10.0 mi East 11.5 mph - N/A   Overcast
1:14 AM 34.3 °F 26.5 °F 15.8 °F 47% 30.00 in 10.0 mi East 10.4 mph - N/A   Overcast
1:34 AM 34.2 °F 24.4 °F 15.8 °F 47% 29.99 in 10.0 mi East 15.0 mph - N/A   Overcast
1:54 AM 34.2 °F 24.4 °F 16.3 °F 48% 29.97 in 10.0 mi East 15.0 mph 19.6 mph N/A   Overcast
2:14 AM 34.0 °F 23.8 °F 17.1 °F 50% 29.97 in 10.0 mi East 16.1 mph 19.6 mph N/A   Overcast
2:34 AM 34.0 °F 24.2 °F 17.2 °F 50% 29.96 in 10.0 mi East 15.0 mph 20.7 mph N/A   Overcast
2:54 AM 34.0 °F 23.0 °F 16.7 °F 49% 29.94 in 10.0 mi East 18.4 mph 23.0 mph N/A   Overcast
3:14 AM 34.0 °F 23.0 °F 16.7 °F 49% 29.94 in 10.0 mi East 18.4 mph - N/A   Overcast
3:34 AM 34.0 °F 23.4 °F 17.2 °F 50% 29.94 in 10.0 mi East 17.3 mph 21.9 mph N/A   Overcast
3:53 AM 33.8 °F 22.8 °F 17.2 °F 51% 29.92 in 10.0 mi East 18.4 mph 27.6 mph N/A   Overcast
4:14 AM 33.8 °F 23.5 °F 17.4 °F 51% 29.92 in 10.0 mi East 16.1 mph - N/A   Overcast
4:34 AM 33.8 °F 23.2 °F 17.6 °F 52% 29.92 in 10.0 mi East 17.3 mph 23.0 mph N/A   Overcast
4:54 AM 33.8 °F 23.2 °F 17.6 °F 52% 29.92 in 10.0 mi East 17.3 mph 23.0 mph N/A   Overcast
5:14 AM 34.0 °F 23.4 °F 17.8 °F 52% 29.91 in 10.0 mi East 17.3 mph 21.9 mph N/A   Overcast
5:34 AM 34.2 °F 24.0 °F 17.6 °F 51% 29.90 in 10.0 mi East 16.1 mph 25.3 mph N/A   Overcast
5:53 AM 34.2 °F 23.0 °F 17.2 °F 50% 29.90 in 10.0 mi East 19.6 mph 25.3 mph N/A   Overcast
6:14 AM 34.2 °F 23.0 °F 17.6 °F 51% 29.89 in 10.0 mi East 19.6 mph 27.6 mph N/A   Overcast
6:34 AM 34.2 °F 23.0 °F 17.6 °F 51% 29.89 in 10.0 mi East 19.6 mph 24.2 mph N/A   Overcast
6:54 AM 34.5 °F 23.8 °F 18.1 °F 51% 29.89 in 10.0 mi East 18.4 mph 24.2 mph N/A   Overcast
7:14 AM 34.7 °F 24.0 °F 18.3 °F 51% 29.90 in 10.0 mi East 18.4 mph 23.0 mph N/A   Overcast
7:34 AM 34.7 °F 24.3 °F 18.7 °F 52% 29.89 in 10.0 mi East 17.3 mph 24.2 mph N/A   Overcast
7:54 AM 35.2 °F 24.4 °F 18.9 °F 51% 29.89 in 10.0 mi East 19.6 mph 25.3 mph N/A   Overcast
8:14 AM 35.8 °F 26.1 °F 19.2 °F 51% 29.89 in 10.0 mi East 16.1 mph 26.5 mph N/A   Overcast
8:54 AM 36.5 °F 26.7 °F 19.8 °F 51% 29.89 in 10.0 mi East 17.3 mph 21.9 mph N/A   Overcast
9:14 AM 36.1 °F 27.3 °F 20.1 °F 52% 29.88 in 10.0 mi East 13.8 mph - N/A   Overcast
9:34 AM 36.7 °F 26.9 °F 20.3 °F 52% 29.87 in 10.0 mi East 17.3 mph 23.0 mph N/A   Overcast
9:54 AM 36.3 °F 26.4 °F 22.6 °F 58% 29.87 in 3.0 mi East 17.3 mph - N/A Snow Light Snow
10:14 AM 33.3 °F 22.8 °F 28.4 °F 82% 29.86 in 0.8 mi East 16.1 mph 19.6 mph N/A Snow Light Snow
10:54 AM 32.9 °F 23.2 °F 30.0 °F 89% 29.86 in 0.8 mi East 13.8 mph 17.3 mph N/A Snow Light Snow
11:14 AM 33.8 °F 26.4 °F 30.0 °F 86% 29.85 in 10.0 mi ENE 9.2 mph - N/A   Overcast
11:34 AM 34.7 °F 25.9 °F 29.3 °F 81% 29.85 in 10.0 mi ENE 12.7 mph - 0.01 in   Overcast
11:54 AM 35.6 °F 27.5 °F 28.0 °F 74% 29.85 in 10.0 mi ENE 11.5 mph - 0.01 in   Overcast
12:14 PM 36.5 °F 29.2 °F 28.0 °F 71% 29.84 in 10.0 mi ENE 10.4 mph - N/A   Overcast
12:34 PM 37.8 °F 30.7 °F 27.5 °F 67% 29.83 in 10.0 mi ENE 10.4 mph - N/A   Overcast
12:53 PM 38.3 °F 30.5 °F 27.3 °F 65% 29.83 in 10.0 mi ENE 12.7 mph - N/A   Overcast
1:14 PM 37.9 °F 32.7 °F 28.4 °F 69% 29.83 in 10.0 mi NNE 6.9 mph - N/A   Overcast
1:34 PM 36.3 °F 29.5 °F 28.6 °F 74% 29.84 in 10.0 mi NE 9.2 mph - N/A   Overcast
1:54 PM 35.1 °F 28.6 °F 29.3 °F 80% 29.84 in 1.2 mi NNE 8.1 mph - N/A Snow Light Snow
2:14 PM 34.0 °F 26.6 °F 30.0 °F 85% 29.84 in 1.2 mi NNE 9.2 mph - N/A Snow Light Snow
2:33 PM 33.3 °F 26.4 °F 30.2 °F 89% 29.85 in 1.2 mi NE 8.1 mph - N/A Snow Light Snow
2:54 PM 33.3 °F 25.7 °F 30.6 °F 90% 29.85 in 2.5 mi NE 9.2 mph 16.1 mph N/A Snow Light Snow
3:14 PM 33.4 °F 25.9 °F 30.7 °F 90% 29.85 in 3.0 mi NE 9.2 mph - N/A Rain Light Rain
3:34 PM 33.3 °F 25.7 °F 30.7 °F 90% 29.85 in 4.0 mi NE 9.2 mph - 0.02 in Rain Light Rain
3:54 PM 33.4 °F 26.6 °F 30.7 °F 90% 29.85 in 3.0 mi NE 8.1 mph - 0.03 in Snow Light Snow
4:13 PM 33.4 °F 27.3 °F 30.7 °F 90% 29.85 in 3.0 mi NNE 6.9 mph - 0.01 in Rain Light Rain
4:54 PM 33.1 °F 24.4 °F 30.2 °F 89% 29.86 in 5.0 mi NNE 11.5 mph 19.6 mph 0.01 in   Overcast
5:14 PM 33.1 °F 24.4 °F 30.2 °F 89% 29.87 in 3.0 mi NNE 11.5 mph 18.4 mph N/A Snow Light Snow
5:34 PM 32.9 °F 24.7 °F 30.2 °F 90% 29.87 in 1.0 mi NNE 10.4 mph 19.6 mph N/A Snow Light Snow
5:53 PM 32.7 °F 24.5 °F 30.0 °F 90% 29.88 in 1.2 mi NNE 10.4 mph 16.1 mph N/A Snow Light Snow
6:14 PM 32.5 °F 24.2 °F 29.8 °F 90% 29.89 in 1.2 mi NNE 10.4 mph 20.7 mph N/A Snow Light Snow
6:34 PM 32.4 °F 24.0 °F 29.7 °F 90% 29.89 in 1.0 mi NNE 10.4 mph 18.4 mph N/A Snow Light Snow
6:54 PM 32.5 °F 24.2 °F 29.8 °F 90% 29.89 in 3.0 mi NNE 10.4 mph 16.1 mph N/A Snow Light Snow
7:14 PM 32.2 °F 23.2 °F 29.3 °F 89% 29.90 in 4.0 mi NNE 11.5 mph 18.4 mph 0.01 in Snow Light Snow
7:34 PM 32.0 °F 22.5 °F 28.9 °F 88% 29.90 in 4.0 mi NNE 12.7 mph 19.6 mph 0.01 in   Overcast
7:54 PM 32.0 °F 24.2 °F 28.6 °F 87% 29.90 in 5.0 mi NNE 9.2 mph 20.7 mph 0.03 in Snow Light Snow
8:14 PM 32.0 °F 23.6 °F 28.4 °F 87% 29.90 in 7.0 mi NNE 10.4 mph 19.6 mph 0.02 in   Overcast
8:33 PM 31.8 °F 21.4 °F 28.0 °F 86% 29.91 in 7.0 mi North 15.0 mph 21.9 mph 0.04 in   Overcast
8:53 PM 31.6 °F 22.6 °F 28.0 °F 87% 29.93 in 5.0 mi North 11.5 mph 21.9 mph 0.05 in Snow Light Snow
9:14 PM 31.5 °F 20.9 °F 27.9 °F 87% 29.94 in 2.0 mi North 15.0 mph 23.0 mph 0.02 in Snow Light Snow
9:33 PM 31.1 °F 20.9 °F 27.5 °F 87% 29.94 in 2.5 mi North 13.8 mph 23.0 mph 0.03 in Snow Light Snow
9:54 PM 31.1 °F 20.9 °F 27.3 °F 86% 29.95 in 2.5 mi North 13.8 mph 25.3 mph 0.03 in Snow Light Snow
10:13 PM 30.9 °F 19.8 °F 26.8 °F 85% 29.95 in 5.0 mi North 16.1 mph 21.9 mph N/A Snow Light Snow
10:34 PM 30.7 °F 19.2 °F 26.4 °F 84% 29.96 in 7.0 mi North 17.3 mph 26.5 mph N/A   Overcast
10:54 PM 30.7 °F 19.6 °F 26.1 °F 83% 29.97 in 10.0 mi North 16.1 mph 24.2 mph N/A   Overcast
11:13 PM 30.6 °F 19.4 °F 25.7 °F 82% 29.97 in 10.0 mi North 16.1 mph 26.5 mph N/A   Overcast
11:34 PM 30.6 °F 18.6 °F 25.5 °F 82% 29.98 in 10.0 mi North 18.4 mph 25.3 mph N/A   Overcast
11:54 PM 30.6 °F 19.4 °F 25.3 °F 81% 29.98 in 10.0 mi North 16.1 mph 24.2 mph N/A   Overcast